TimePST,TemperatureF,Dew PointF,Humidity,Sea Level PressureIn,VisibilityMPH,Wind Direction,Wind SpeedMPH,Gust SpeedMPH,PrecipitationIn,Events,Conditions,WindDirDegrees,DateUTC
12:51 AM,55.9,39.0,53,30.07,10.0,East,12.7,-,N/A,,Clear,80,2013-11-24 08:51:00
1:51 AM,55.0,39.9,57,30.08,10.0,East,8.1,-,N/A,,Clear,100,2013-11-24 09:51:00
2:51 AM,57.0,39.9,53,30.09,10.0,ESE,5.8,-,N/A,,Clear,120,2013-11-24 10:51:00
3:51 AM,55.9,39.9,55,30.09,10.0,East,11.5,-,N/A,,Clear,80,2013-11-24 11:51:00
4:51 AM,55.9,39.0,53,30.10,10.0,East,11.5,-,N/A,,Clear,90,2013-11-24 12:51:00
5:51 AM,55.0,39.0,55,30.12,10.0,East,8.1,-,N/A,,Clear,100,2013-11-24 13:51:00
6:51 AM,55.0,39.0,55,30.13,10.0,ESE,9.2,-,N/A,,Clear,110,2013-11-24 14:51:00
7:51 AM,55.9,39.9,55,30.15,10.0,East,6.9,-,N/A,,Clear,80,2013-11-24 15:51:00
8:51 AM,60.1,39.0,46,30.17,10.0,East,5.8,-,N/A,,Clear,90,2013-11-24 16:51:00
9:51 AM,64.0,37.0,37,30.17,10.0,East,15.0,-,N/A,,Clear,100,2013-11-24 17:51:00
10:51 AM,64.9,37.9,37,30.16,10.0,East,12.7,-,N/A,,Clear,100,2013-11-24 18:51:00
11:51 AM,68.0,37.0,32,30.14,10.0,ENE,11.5,-,N/A,,Clear,70,2013-11-24 19:51:00
12:51 PM,63.0,45.0,52,30.13,10.0,West,12.7,-,N/A,,Clear,260,2013-11-24 20:51:00
1:51 PM,63.0,46.0,54,30.13,10.0,WSW,10.4,-,N/A,,Clear,250,2013-11-24 21:51:00
2:51 PM,62.1,45.0,53,30.13,10.0,WSW,8.1,-,N/A,,Clear,250,2013-11-24 22:51:00
3:51 PM,61.0,48.9,64,30.13,10.0,West,6.9,-,N/A,,Clear,260,2013-11-24 23:51:00
4:51 PM,60.1,50.0,69,30.14,10.0,WSW,4.6,-,N/A,,Clear,240,2013-11-25 00:51:00
5:51 PM,59.0,48.9,69,30.15,10.0,Calm,Calm,-,N/A,,Clear,0,2013-11-25 01:51:00
6:51 PM,55.9,48.0,75,30.17,10.0,West,4.6,-,N/A,,Clear,280,2013-11-25 02:51:00
7:51 PM,54.0,46.9,77,30.19,10.0,North,4.6,-,N/A,,Clear,10,2013-11-25 03:51:00
8:51 PM,53.1,46.0,77,30.19,10.0,ENE,5.8,-,N/A,,Clear,60,2013-11-25 04:51:00
9:51 PM,52.0,45.0,77,30.20,10.0,Calm,Calm,-,N/A,,Clear,0,2013-11-25 05:51:00
10:51 PM,51.1,44.1,77,30.21,10.0,Calm,Calm,-,N/A,,Clear,0,2013-11-25 06:51:00
11:51 PM,50.0,43.0,77,30.20,10.0,Calm,Calm,-,N/A,,Clear,0,2013-11-25 07:51:00